パンスターズ彗星

P/2023 V2 ( PanSTARRS )

English version
Home page
Updated on May 13, 2024

---------------------------------------------------------------------

・ プロフィール

発見日 2023年11月4日
発見光度 20.5等
発見者 Pan-STARRS 2 telescope (Haleakala)

・ 写真集

・ 軌道要素

Epoch 2024 Mar. 31.0 TT = JDT 2460400.5
T 2024 Feb. 4.10639 TT                                  Rudenko
q   3.1044092            (2000.0)            P               Q
n   0.05052365     Peri.  330.58668     +0.39852110     -0.90109838
a   7.2466883      Node    95.47339     +0.87145031     +0.31394187
e   0.5716099      Incl.    9.88496     +0.28592882     +0.29910235
P  19.5
>From 78 observations 2023 Oct. 6-2024 Feb. 10, mean residual 0".2.

・ 光度変化

        m1 = 13.0 + 5 logΔ + 10.0 log r

---------------------------------------------------------------------

軌道要素はM.P.E.C. 2024-D33に掲載されたものです。
光度グラフはComet for Windowsで作成したものです。

---------------------------------------------------------------------

Copyright(C) Seiichi Yoshida (comet@aerith.net). All rights reserved.